Vorticity
nan nan nan nan nan nan nan nan nan nan nan nan nan nan nan nan nan nan nan nan nan nan nan nan nan nan nan nan nan nan nan nan nan nan nan nan nan nan nan nan nan nan nan nan nan nan nan nan nan nan nan nan nan nan nan nan nan nan nan nan nan nan nan nan nan nan nan nan nan nan nan nan nan nan nan nan nan nan nan nan nan nan nan nan nan nan
nan 12 15 13 7 5 11 12 7 6 7 7 7 8 8 7 5 4 3 6 8 8 8 7 8 9 12 13 11 9 7 7 7 7 7 7 7 8 8 7 7 6 5 5 4 4 4 4 4 4 4 5 5 5 6 6 6 7 7 7 7 8 8 7 7 7 7 7 7 6 6 6 6 6 7 7 8 8 8 7 7 8 9 9 9 nan
nan 10 13 12 7 4 9 11 8 9 9 8 9 10 9 6 5 5 5 5 6 7 8 8 8 7 9 12 14 11 8 8 8 8 7 8 8 8 8 8 7 6 5 4 4 4 4 4 4 4 5 5 5 5 6 6 6 7 7 7 7 7 7 7 7 7 7 7 7 7 6 7 7 7 7 7 8 8 8 7 7 8 9 9 9 nan
nan 10 11 9 9 7 9 11 10 9 10 11 11 10 7 5 5 7 8 8 7 7 7 9 10 9 7 10 14 15 12 9 9 8 8 8 9 9 8 7 7 6 5 4 4 4 4 4 4 5 5 5 6 6 7 7 7 7 7 7 7 7 7 7 7 7 7 7 7 7 7 7 7 8 8 8 8 8 8 8 8 8 8 9 9 nan
nan 10 9 8 9 9 10 11 10 8 9 9 9 8 6 6 8 8 9 9 8 8 7 8 8 9 10 12 16 19 16 11 9 9 9 9 9 9 8 8 7 6 5 4 4 4 4 4 5 5 5 6 7 7 8 8 8 7 7 6 6 6 6 6 6 7 7 7 8 8 9 9 9 8 8 8 8 8 8 8 8 8 8 8 9 nan
nan 9 8 7 8 9 11 11 9 7 5 6 7 7 8 9 10 10 9 8 8 7 7 7 8 8 10 15 19 21 18 15 12 11 10 10 10 9 9 9 8 7 5 4 4 4 4 4 5 5 6 7 7 8 8 9 8 8 7 6 5 5 5 5 6 6 7 8 9 9 10 10 10 9 9 9 9 9 9 9 8 8 8 8 9 nan
nan 9 7 7 9 10 12 12 9 6 4 5 5 6 7 8 9 10 11 10 9 8 8 8 8 8 9 12 15 18 18 16 15 14 14 13 11 10 10 10 9 7 6 5 4 4 4 5 5 6 7 7 7 8 8 9 8 8 7 6 5 5 5 5 6 7 7 8 9 10 10 11 11 11 10 10 10 10 10 9 9 9 8 8 9 nan
nan 8 7 7 9 10 10 10 10 9 8 7 6 6 6 6 7 8 9 10 10 9 8 8 8 8 8 9 10 11 13 12 12 15 17 16 14 13 13 11 10 8 6 5 5 5 5 6 6 7 7 7 7 7 7 7 7 7 6 5 5 5 5 6 6 7 8 8 9 10 11 11 11 11 11 10 10 10 10 10 10 9 9 9 9 nan
nan 8 8 8 8 8 7 7 9 10 11 11 9 8 7 7 7 7 6 7 8 9 10 9 8 7 7 8 8 9 9 10 11 14 16 16 17 18 17 14 11 9 7 6 6 6 7 7 7 7 7 7 6 6 6 6 6 6 6 5 5 6 6 6 7 7 8 9 9 10 10 11 11 11 11 11 11 10 10 11 11 10 10 10 9 nan
nan 9 8 7 8 8 8 7 7 9 12 13 12 11 11 10 7 6 5 5 6 8 10 11 9 7 5 6 7 8 7 7 6 8 10 12 15 16 15 14 14 12 10 10 9 9 9 9 9 8 7 6 6 5 5 5 6 6 6 6 6 7 7 7 8 8 9 9 10 10 10 10 11 11 11 11 11 11 11 11 11 11 11 11 10 nan
nan 8 7 6 6 9 11 10 10 11 12 11 9 9 11 13 11 10 6 5 6 6 7 8 9 8 7 5 6 7 7 5 1 -1 -0 4 6 6 7 8 10 11 10 11 11 11 11 11 11 10 8 7 6 5 5 6 6 7 7 7 8 8 8 8 8 8 9 9 9 9 9 10 10 11 11 12 12 12 11 11 11 11 11 11 11 nan
nan 8 7 7 7 8 9 10 11 13 11 8 6 6 7 8 12 15 12 8 7 5 5 6 8 9 9 8 7 7 8 7 4 1 -1 0 1 3 3 3 3 5 5 6 7 9 10 12 14 12 9 8 7 7 7 7 7 8 9 9 8 8 8 8 8 8 9 9 9 9 9 9 10 10 11 12 12 12 11 11 11 11 11 12 11 nan
nan 10 11 10 8 7 7 8 9 11 11 10 9 8 6 4 8 13 15 12 9 7 6 7 7 8 8 10 9 9 9 8 7 6 5 4 4 6 6 6 5 4 4 5 4 4 6 10 12 11 9 8 8 9 8 8 9 10 10 10 9 8 8 8 8 8 8 9 9 9 9 9 9 10 11 11 11 11 10 10 10 10 11 11 11 nan
nan 10 11 11 9 8 8 9 9 10 9 8 8 9 10 9 10 11 12 11 9 8 10 10 8 7 7 9 10 10 10 9 8 8 8 7 7 9 10 10 8 8 8 8 6 4 5 8 9 8 7 7 8 9 9 9 10 11 11 10 9 8 8 7 7 7 8 8 8 9 8 9 9 9 10 10 10 9 9 9 9 9 10 10 11 nan
nan 9 9 9 8 9 10 10 10 9 7 5 8 10 13 13 12 11 10 8 7 8 10 9 7 7 8 8 9 10 10 11 10 9 8 7 8 9 11 11 10 9 10 10 8 6 6 9 9 7 5 6 7 8 9 9 10 11 10 10 9 8 7 7 7 7 7 8 8 9 9 9 9 9 9 9 9 8 8 7 8 8 8 9 9 nan
nan 10 9 8 8 8 10 10 9 9 8 8 11 12 11 10 9 10 9 8 7 8 9 7 6 6 8 9 9 9 10 11 11 11 8 6 7 8 11 12 11 10 10 9 8 7 8 9 9 9 8 8 9 10 10 10 10 10 10 9 8 7 7 7 7 7 7 8 8 9 9 9 9 9 9 9 9 8 7 7 7 7 7 8 8 nan
nan 9 9 9 10 9 9 10 10 10 10 10 11 12 12 10 9 9 9 8 7 8 9 8 6 6 7 8 8 9 10 11 11 11 9 6 6 7 10 12 11 10 9 9 9 8 9 9 9 9 9 10 11 11 11 10 10 10 10 9 8 7 7 7 7 7 8 8 9 9 10 10 10 9 9 9 9 8 8 7 7 7 7 7 7 nan
nan 9 9 10 10 11 10 8 7 10 11 10 9 9 10 12 12 12 11 9 9 9 8 7 7 8 9 8 9 9 10 10 11 10 8 7 6 7 10 12 11 10 9 9 9 9 9 9 9 8 8 9 11 12 11 10 10 10 10 9 9 8 8 8 8 8 8 9 9 10 11 11 10 10 10 9 9 9 8 8 8 8 8 8 8 nan
nan 10 9 10 11 12 11 9 8 9 9 10 9 8 8 9 11 12 11 11 10 10 8 7 6 8 8 10 10 10 10 11 11 11 8 6 6 6 9 12 12 11 10 9 9 9 9 9 8 8 7 10 12 12 12 11 10 10 10 10 10 10 9 9 8 8 9 9 10 11 11 11 10 10 10 10 10 9 9 8 8 8 8 8 8 nan
nan 9 9 10 11 12 11 11 10 10 10 10 10 9 8 9 9 9 9 9 9 9 11 11 8 7 7 9 10 10 10 11 12 11 9 7 6 6 9 11 12 11 10 9 8 9 9 10 10 10 10 12 13 13 11 10 10 10 10 11 11 11 10 9 9 9 9 10 11 12 11 10 9 9 9 9 9 9 9 8 8 8 8 8 8 nan
nan 9 9 9 9 9 11 14 14 13 12 10 8 8 8 9 9 8 8 8 8 9 11 10 8 9 10 11 10 9 10 12 11 10 9 7 7 8 9 11 12 11 11 9 8 8 9 10 11 11 12 13 13 13 11 9 9 9 10 11 11 11 10 9 9 9 10 11 11 11 10 9 8 8 8 8 8 8 8 8 8 8 8 9 9 nan
nan 12 13 10 8 9 14 17 17 15 12 8 5 5 8 10 10 9 8 8 9 9 8 8 9 11 13 12 10 8 9 12 12 11 10 8 8 9 9 10 11 11 10 9 8 8 10 10 11 10 11 11 12 12 10 9 9 9 11 12 12 11 10 9 9 9 10 11 11 10 9 8 8 7 7 7 7 8 8 8 8 7 8 9 9 nan
nan 14 14 11 9 11 16 18 17 15 11 7 6 6 11 15 13 12 11 9 10 9 9 10 11 12 12 11 9 9 10 11 11 12 12 10 9 8 8 10 11 11 10 9 8 9 10 11 11 10 9 10 12 13 11 10 10 10 11 12 12 11 9 8 8 9 9 10 9 9 8 8 7 7 7 7 8 8 8 8 8 7 8 8 9 nan
nan 15 14 12 10 11 15 16 14 12 9 9 9 11 15 19 18 18 16 15 13 12 11 10 9 8 8 9 8 8 9 10 11 12 12 11 9 8 8 10 11 11 10 9 9 10 11 12 11 10 8 9 12 13 13 12 11 12 12 13 12 10 9 8 8 8 9 8 8 8 7 7 7 7 7 8 8 8 8 8 8 8 8 8 9 nan
nan 16 16 16 15 15 17 18 16 13 11 10 11 12 13 14 15 15 15 14 13 12 10 7 5 5 6 8 8 8 8 9 11 12 11 11 9 9 9 10 11 11 9 9 9 10 11 11 10 10 8 8 9 12 14 14 14 14 14 13 12 10 9 9 9 9 9 8 8 7 7 7 7 8 8 8 8 8 8 8 8 8 8 8 9 nan
nan 21 22 21 21 20 20 20 18 15 11 9 11 11 10 8 8 8 9 9 10 9 7 4 4 6 8 9 9 9 9 9 10 11 10 11 10 10 9 10 10 10 9 9 10 11 11 11 9 8 8 7 8 11 15 19 20 19 16 13 12 10 9 9 10 10 10 10 9 9 8 8 8 8 8 8 8 8 8 8 8 8 9 9 9 nan
nan 24 22 20 20 19 19 19 16 13 10 10 11 10 7 6 6 7 7 8 8 7 5 4 6 7 9 10 10 10 10 10 10 10 9 10 10 10 10 10 10 10 9 9 10 11 11 10 8 8 8 8 8 8 14 23 26 27 22 14 12 11 10 10 11 11 12 12 12 12 11 11 10 9 9 8 8 8 8 8 8 9 10 11 11 nan
nan 20 19 18 18 18 17 15 13 11 10 11 10 4 -0 2 6 8 8 8 8 7 6 7 8 9 10 10 9 10 10 11 11 10 9 9 10 10 10 10 10 10 10 10 10 10 10 10 9 9 9 9 9 7 9 18 26 30 26 18 14 11 10 11 11 11 12 13 13 14 14 13 12 11 10 9 8 8 8 8 8 9 11 13 13 nan
nan 14 15 16 15 14 11 9 10 11 11 8 4 -3 -3 3 9 12 11 9 9 8 7 8 8 9 10 9 10 11 11 13 13 12 9 8 9 10 10 10 10 11 10 10 10 10 10 10 10 10 9 9 10 9 7 10 16 21 23 20 14 11 11 11 10 10 10 11 12 12 13 13 13 12 10 9 8 8 7 7 8 10 12 13 12 nan
nan 6 7 9 8 6 5 7 10 11 8 3 0 -2 2 9 14 16 14 10 9 9 8 8 8 9 9 9 10 11 12 14 14 12 8 7 9 10 10 9 10 10 10 10 9 9 9 10 9 9 9 9 10 10 9 9 9 10 13 14 11 9 10 10 10 9 9 10 10 10 11 11 11 11 10 9 8 8 7 6 7 9 11 10 9 nan
nan 2 3 4 4 5 7 10 11 8 2 -1 1 4 10 14 16 16 13 10 9 10 10 9 9 9 9 9 9 10 11 13 14 12 8 7 9 10 10 9 9 10 10 10 10 10 10 10 9 8 8 9 10 10 10 9 9 9 9 9 8 6 7 8 9 9 9 9 9 9 9 10 10 10 9 9 8 8 7 7 7 7 8 8 7 nan
nan 6 6 6 7 8 9 10 9 7 3 2 5 8 12 14 14 13 10 9 9 11 11 11 10 9 9 9 10 10 11 14 15 12 7 6 9 10 10 10 10 10 10 10 11 12 12 10 9 8 7 9 9 9 9 10 10 10 11 11 8 5 4 6 8 8 7 7 8 9 10 10 10 11 10 10 10 9 8 8 8 7 6 8 8 nan
nan 8 9 9 9 10 10 10 10 8 7 7 8 9 11 12 12 11 10 10 10 11 11 10 9 8 8 9 10 10 12 15 18 14 6 3 7 10 11 10 10 10 10 10 11 13 13 11 10 9 9 9 9 9 10 10 9 9 11 11 9 6 4 5 7 7 7 6 7 8 9 10 11 12 12 13 12 12 11 11 10 8 5 7 9 nan
nan 9 9 9 9 10 10 10 10 9 9 9 9 10 10 10 10 10 10 10 11 12 11 10 10 9 8 8 9 10 12 16 18 14 5 1 7 10 11 10 11 10 9 9 10 11 11 11 11 11 11 10 10 10 10 9 9 9 10 10 10 8 6 7 8 8 8 8 8 8 8 9 11 12 13 14 14 14 14 14 13 11 8 7 8 nan
nan 8 8 9 9 9 9 9 9 9 9 8 9 9 10 10 10 9 9 10 11 12 12 12 12 11 9 8 9 10 13 17 18 13 4 2 6 9 11 11 11 10 9 9 10 10 10 10 11 11 11 11 10 10 9 9 10 10 10 10 10 9 8 8 9 9 10 10 10 9 9 9 10 11 12 13 13 14 14 15 15 14 13 10 8 nan
nan 7 7 8 9 8 8 8 8 7 7 7 8 9 10 10 10 9 9 10 11 11 12 12 13 13 13 12 11 12 15 18 18 13 5 3 5 7 10 12 12 9 8 9 10 10 10 10 10 10 11 11 11 9 9 9 10 10 10 10 10 10 9 10 10 10 10 11 10 10 9 9 10 10 9 10 12 13 14 15 16 17 17 15 12 nan
nan 7 6 7 8 9 8 7 7 7 7 7 8 9 10 10 10 10 9 10 11 12 11 11 11 12 15 15 15 16 18 18 17 14 7 4 5 7 11 13 13 10 8 9 10 10 10 10 9 9 10 10 10 9 8 9 10 11 10 10 10 10 11 11 10 10 10 10 10 9 9 9 9 9 8 9 12 14 15 16 16 16 16 16 15 nan
nan 7 6 7 8 9 9 8 8 8 8 9 9 9 10 10 11 11 10 10 11 12 12 10 9 8 11 16 17 19 20 19 16 14 9 4 5 8 11 13 13 10 10 11 11 10 10 9 9 8 9 10 10 9 8 9 10 10 10 10 10 11 11 11 11 10 10 10 9 9 8 9 9 9 9 11 12 13 14 14 14 13 14 16 16 nan
nan 8 7 7 8 9 10 11 11 10 10 10 11 10 10 10 10 10 10 10 10 11 12 12 10 7 7 11 14 15 16 15 14 14 11 6 5 7 10 12 12 11 10 11 11 11 10 9 9 9 9 10 11 10 10 10 10 9 9 11 12 13 11 10 10 10 10 10 10 10 9 9 9 10 10 10 11 11 11 11 11 10 12 14 15 nan
nan 9 8 7 7 9 12 13 13 12 11 11 11 10 9 9 8 9 9 10 9 9 10 10 9 8 7 8 8 9 11 12 12 13 12 10 7 7 9 11 11 11 10 9 10 11 10 9 9 9 8 9 10 10 9 10 9 7 6 8 10 10 9 8 9 9 10 10 11 11 10 10 10 10 10 9 9 9 9 9 8 8 9 12 14 nan
nan 8 8 8 8 10 12 13 14 13 12 10 9 9 9 8 8 8 9 9 8 9 8 8 8 8 7 7 7 7 9 12 11 10 13 13 10 9 9 11 11 12 10 9 10 11 10 9 8 8 7 7 7 7 8 8 8 6 5 6 6 6 7 9 10 12 11 11 11 11 11 11 11 11 9 9 8 8 8 9 8 8 9 11 12 nan
nan 8 8 9 10 10 11 12 12 12 10 10 10 10 10 9 9 10 9 8 8 8 10 11 10 9 7 7 6 6 8 11 12 11 11 12 12 11 10 10 10 11 10 9 9 11 12 10 9 8 8 7 7 7 7 8 8 8 7 6 7 9 12 15 13 12 11 11 11 11 11 11 10 9 8 8 9 9 10 10 9 9 9 10 11 nan
nan 9 10 11 11 11 11 10 9 9 9 10 10 10 10 10 11 11 10 9 9 9 9 11 11 11 9 8 7 6 6 9 12 13 12 11 11 11 11 10 10 10 8 7 8 10 13 12 11 10 10 10 9 8 8 9 10 11 10 9 8 10 13 15 12 11 10 11 11 11 11 10 9 8 8 8 10 11 12 12 12 12 10 10 10 nan
nan 10 11 11 11 10 9 9 9 9 10 10 10 10 10 11 11 9 9 11 11 9 7 9 10 11 10 10 9 8 7 9 11 13 14 16 13 11 10 11 11 10 8 5 5 7 10 12 12 13 13 12 10 9 9 9 10 10 12 11 10 7 5 6 7 8 9 9 9 10 10 9 9 8 8 10 11 11 12 12 12 13 13 12 10 nan
nan 11 11 10 10 10 9 10 10 10 10 10 10 10 10 10 10 9 10 12 11 9 8 9 10 9 9 9 9 9 10 10 10 10 13 17 17 13 11 10 10 11 10 8 7 6 6 9 12 13 14 13 11 10 8 8 9 10 11 12 11 9 6 4 5 5 6 6 8 9 10 9 8 8 9 11 11 11 11 11 11 11 12 12 11 nan
nan 11 10 10 11 11 10 9 9 9 10 10 10 9 10 10 9 11 11 11 10 9 9 10 10 9 8 8 9 10 11 11 10 9 10 11 13 14 14 12 11 11 11 11 10 9 8 9 10 11 10 10 11 10 10 9 9 9 11 12 11 11 11 10 9 8 8 7 9 11 12 10 8 8 9 10 11 11 11 11 11 11 11 11 11 nan
nan 10 9 9 10 10 10 9 9 9 9 9 9 9 10 10 10 10 10 10 10 10 10 10 11 10 8 8 9 10 11 10 9 9 9 9 10 11 12 13 14 13 12 11 11 11 10 10 10 8 6 7 9 11 12 11 10 9 10 11 11 10 10 11 12 12 11 10 11 13 11 8 8 8 9 10 10 11 12 12 11 11 11 11 11 nan
nan 9 9 9 9 9 9 9 9 9 9 8 8 9 11 11 10 8 8 10 10 10 9 9 10 10 8 7 9 10 10 9 9 10 10 9 9 9 10 12 13 13 13 13 12 11 11 11 9 7 5 5 6 8 11 12 11 10 11 10 10 10 10 11 12 13 12 12 13 13 9 7 7 9 10 10 10 11 11 11 12 12 12 11 11 nan
nan 10 9 9 9 9 9 9 9 9 9 9 8 9 12 13 11 7 7 11 10 10 9 9 9 9 8 7 8 9 9 7 8 9 10 10 10 10 11 11 11 11 12 12 12 12 14 14 13 10 6 3 3 4 8 11 11 11 11 10 10 10 10 11 12 12 13 14 14 13 9 8 9 9 10 10 9 9 10 11 12 13 13 12 12 nan
nan 10 10 9 9 9 9 10 10 9 10 9 9 9 10 12 11 9 10 11 11 10 10 10 9 9 8 9 9 10 9 7 7 7 9 10 11 11 11 11 11 10 9 10 12 12 13 17 20 21 16 7 2 1 5 9 11 12 11 11 11 11 11 11 11 12 12 13 13 13 11 10 11 11 10 10 9 9 10 11 11 12 13 13 13 nan
nan nan nan nan nan nan nan nan nan nan nan nan nan nan nan nan nan nan nan nan nan nan nan nan nan nan nan nan nan nan nan nan nan nan nan nan nan nan nan nan nan nan nan nan nan nan nan nan nan nan nan nan nan nan nan nan nan nan nan nan nan nan nan nan nan nan nan nan nan nan nan nan nan nan nan nan nan nan nan nan nan nan nan nan nan nan
CAPE
1 1 1 1 1 1 2 2 1 1 0 0 0 0 1 0 0 0 0 nan nan nan nan nan nan 0 8 9 7 7 6 4 2 2 4 5 9 9 11 9 9 8 7 4 4 2 1 nan nan nan nan nan nan nan nan nan nan nan nan 0 0 1 1 2 2 3 2 1 0 0 0 0 nan nan nan nan nan nan nan 0 0 1 3 1 1 0
1 1 2 1 1 1 1 3 1 1 0 0 1 1 1 0 0 0 0 nan nan nan nan nan nan 0 1 12 6 6 7 6 4 4 7 7 9 9 12 12 12 8 7 5 5 2 0 nan nan nan nan nan nan nan nan nan nan nan nan nan nan nan nan nan nan nan nan nan nan nan nan nan nan nan nan nan nan nan nan 1 1 1 3 2 2 0
2 2 2 3 3 2 1 2 0 0 0 0 1 1 0 0 0 0 0 0 0 nan nan 0 0 nan nan 2 6 6 6 6 6 6 8 8 10 10 12 12 12 10 8 6 6 3 0 nan nan nan nan nan nan nan nan nan nan nan nan nan nan nan nan nan nan nan nan nan nan nan nan nan nan nan nan nan nan nan 0 1 1 1 2 2 2 1
2 1 1 3 3 2 0 0 0 0 0 0 1 1 0 nan 0 0 0 0 0 nan nan nan nan nan nan nan 1 1 6 6 7 7 8 9 10 10 11 12 12 11 9 7 7 3 0 nan nan nan nan nan nan nan nan nan nan nan nan nan nan nan nan nan nan nan nan nan nan nan nan nan nan nan nan nan nan nan nan nan nan 0 1 0 0 0
1 0 0 nan nan nan nan nan nan nan nan 0 0 0 nan nan 0 0 1 0 0 nan nan nan nan nan nan nan nan nan 6 6 8 8 9 10 11 11 12 12 12 12 10 7 7 3 1 nan nan nan nan nan nan nan nan nan nan nan nan nan nan nan nan nan nan nan nan nan nan nan nan nan nan nan nan nan nan nan nan nan nan nan nan nan nan 0
1 0 0 nan nan nan nan 0 nan nan nan nan nan nan nan 0 0 0 1 0 0 0 0 nan nan nan nan nan 3 3 4 9 9 9 9 11 12 12 12 13 13 13 10 7 7 3 0 nan nan nan nan nan nan nan nan nan nan nan nan nan nan nan nan nan nan nan nan nan nan nan nan nan nan nan nan nan nan nan nan nan nan nan nan nan nan 0
1 0 0 nan nan 0 0 1 0 0 0 0 0 0 0 0 0 0 0 0 0 0 0 nan nan nan nan nan 0 0 2 7 10 10 11 12 13 13 14 13 13 12 10 6 6 2 0 nan nan nan nan nan nan nan nan nan nan nan nan nan nan nan nan nan nan nan nan nan nan nan nan nan nan nan nan nan nan nan nan nan nan nan nan nan nan 0
0 1 1 1 1 1 1 0 0 0 1 0 1 1 0 1 1 1 0 nan nan nan nan nan nan nan nan nan nan nan nan nan nan nan nan 6 9 9 11 11 11 8 4 1 1 nan nan nan nan nan nan nan nan nan nan nan nan nan nan nan nan nan nan nan nan nan nan nan nan nan nan nan nan nan nan nan nan nan nan nan nan nan nan nan nan 0
0 0 1 0 0 0 1 0 nan nan nan 1 1 1 0 0 1 1 1 0 0 nan nan nan nan nan nan nan nan nan nan nan nan nan nan nan nan nan 2 3 3 2 0 nan nan nan nan nan nan nan nan nan nan nan nan nan nan nan nan nan nan nan nan nan nan nan nan nan nan nan nan nan nan nan nan nan nan nan nan nan nan nan nan nan nan nan
0 0 1 1 1 nan 1 0 nan nan nan nan nan nan nan 0 1 1 1 1 1 nan nan nan nan nan nan nan nan nan nan nan nan nan nan nan nan nan nan nan nan nan nan nan nan nan nan nan nan nan nan nan nan nan nan nan nan nan nan nan nan nan nan nan nan nan nan nan nan nan nan nan nan nan nan nan nan nan nan nan nan nan nan nan nan nan
1 1 0 0 0 0 nan nan nan nan nan nan nan nan nan nan 3 3 2 1 1 nan nan nan nan nan nan nan nan nan nan nan nan nan nan nan nan nan nan nan nan nan nan nan nan nan nan nan nan nan nan nan nan nan nan nan nan nan nan nan nan nan nan nan nan nan nan nan nan nan nan nan nan nan nan nan nan nan nan nan nan nan nan nan nan nan
nan nan nan 0 0 0 nan nan nan nan 0 1 0 0 0 nan nan nan 3 1 1 nan nan nan nan nan nan nan nan nan nan nan nan nan nan nan nan nan nan nan nan nan nan nan nan nan nan nan nan nan nan nan nan nan nan nan nan nan nan nan nan nan nan nan nan nan nan nan nan nan nan nan nan nan 0 nan nan nan nan nan nan nan nan nan nan nan
nan nan nan 0 0 nan nan 0 0 0 0 1 1 1 2 nan nan nan nan nan nan nan nan nan nan nan nan nan nan nan nan nan nan nan nan nan nan nan nan nan nan nan nan nan nan nan nan nan nan nan nan nan nan nan nan nan nan nan nan nan nan nan nan nan nan nan nan nan nan nan nan nan nan nan 0 0 nan nan nan nan nan nan nan nan nan nan
nan nan 0 1 1 0 0 0 0 0 1 0 nan nan nan nan nan nan nan nan nan nan nan nan nan nan nan nan nan nan nan nan nan nan nan nan nan nan nan nan nan nan nan nan nan nan nan nan nan nan nan nan nan nan nan nan nan nan nan nan nan nan nan nan nan nan nan nan nan nan nan nan nan nan 0 0 nan nan nan nan nan nan nan nan nan nan
nan nan 0 0 0 nan 0 nan nan nan nan nan nan nan nan nan nan nan nan nan nan nan nan nan nan nan nan nan nan nan nan nan nan nan nan nan nan nan nan nan nan nan nan nan nan nan nan nan nan nan nan nan nan nan nan nan nan nan nan nan nan nan nan nan nan nan nan nan nan nan nan nan nan nan 0 0 nan nan nan nan nan nan nan nan nan nan
nan 0 1 0 0 1 nan 0 nan nan nan nan nan nan nan nan nan nan nan nan nan nan nan nan nan nan nan nan nan nan nan nan nan nan nan nan nan nan nan nan nan nan nan nan nan nan nan nan nan nan nan nan nan nan nan nan nan nan nan nan nan nan nan nan nan nan nan nan nan nan nan nan nan nan nan 0 nan nan nan nan nan nan nan nan nan nan
0 0 0 nan nan 0 nan nan nan nan nan nan nan nan nan nan nan nan nan nan nan nan nan nan nan nan nan nan nan nan nan nan nan nan nan nan nan nan nan nan nan nan nan nan nan nan nan nan nan nan nan nan nan nan nan nan nan nan nan nan nan nan nan nan nan nan nan nan nan nan nan nan nan nan nan nan nan nan nan nan nan nan nan nan nan nan
nan 0 nan nan nan nan nan nan nan nan nan nan nan nan nan nan nan nan nan nan nan nan nan nan nan nan nan nan nan nan nan nan nan nan nan nan nan nan nan nan nan nan nan nan nan nan nan nan nan nan nan nan nan nan nan nan nan nan nan nan nan nan nan nan nan nan nan nan nan nan nan nan nan nan nan nan nan nan nan nan nan nan nan nan nan nan
nan nan nan nan nan nan nan nan nan nan nan nan nan nan nan nan nan nan nan nan nan nan nan nan nan nan nan nan nan nan nan nan nan nan nan nan nan nan nan nan nan nan nan nan nan nan nan nan nan nan nan nan nan nan nan nan nan nan nan nan nan nan nan nan nan nan nan nan nan nan nan nan nan nan nan nan nan nan nan nan nan nan nan nan nan nan
nan nan nan nan nan nan nan nan nan nan nan nan nan nan nan nan nan nan nan nan nan nan nan nan nan nan nan nan nan nan nan nan nan nan nan nan nan nan nan nan nan nan nan nan nan nan nan nan nan nan nan nan nan nan nan nan nan nan nan nan nan nan nan nan nan nan nan nan nan nan nan nan nan nan nan nan nan nan nan 0 0 0 0 0 0 nan
nan nan nan nan nan nan nan nan nan nan nan nan nan nan nan nan nan nan nan nan nan nan nan nan nan nan nan nan nan nan nan nan nan nan nan nan nan nan nan nan nan nan nan nan nan nan nan nan nan nan nan nan nan nan nan nan nan nan nan nan nan 0 nan nan nan nan nan nan nan nan nan nan nan nan nan nan nan nan nan nan nan 1 2 2 2 1
nan nan nan nan nan nan nan nan nan nan nan nan nan nan nan nan nan nan nan nan nan nan nan nan nan nan nan nan nan nan nan nan nan nan nan nan nan nan nan nan nan nan nan nan nan nan nan nan nan nan nan nan nan nan nan nan nan nan nan nan nan 0 nan nan nan nan nan nan 0 0 nan nan nan nan nan nan nan nan nan nan nan 1 2 2 2 3
nan nan nan nan nan nan nan nan nan nan nan nan nan nan nan nan nan nan nan nan nan nan nan nan nan nan nan nan nan nan nan nan nan nan nan nan nan nan nan nan nan nan nan nan nan nan nan nan nan nan nan nan nan nan nan nan nan nan nan nan nan 0 nan nan nan nan nan 0 1 1 0 0 nan nan nan nan nan nan nan nan nan 0 2 2 2 2
nan nan nan nan nan nan nan nan nan nan nan nan nan nan nan nan nan nan nan nan nan nan nan nan nan nan nan nan nan nan nan nan nan nan nan nan nan nan nan nan nan nan nan nan nan nan nan nan nan nan nan nan nan nan nan nan nan nan nan 0 0 0 nan nan nan nan 0 1 1 1 1 1 0 0 0 0 nan nan nan nan nan 0 1 2 2 2
nan nan nan nan nan nan nan nan nan nan nan nan nan nan nan nan nan nan nan nan nan nan nan nan nan nan nan nan nan nan nan nan nan nan nan nan nan nan nan nan nan nan nan nan nan nan nan nan nan nan nan nan nan nan nan nan nan nan nan 0 0 1 1 1 1 2 2 2 2 2 1 2 2 2 2 2 2 2 1 0 0 0 1 1 1 1
nan nan nan nan nan nan nan nan nan nan nan nan nan nan nan nan nan nan nan nan nan nan nan nan nan nan nan nan nan nan nan nan nan nan nan nan nan nan nan nan nan nan nan nan nan nan nan nan nan nan nan nan nan nan nan nan nan nan 0 1 1 1 1 1 1 2 2 2 2 2 2 2 2 2 2 2 2 2 2 2 2 1 0 nan nan 0
nan nan nan nan nan nan nan nan nan nan nan nan nan nan nan nan nan nan nan nan nan nan nan nan nan nan nan nan nan nan nan nan nan nan nan nan nan nan nan nan nan nan nan nan nan nan nan nan nan nan nan nan nan nan nan nan nan nan 2 2 2 2 1 1 1 1 1 1 1 1 1 2 2 2 2 2 2 2 2 1 1 1 0 nan nan nan
nan nan nan nan nan nan nan nan nan nan nan nan nan nan nan nan nan nan nan nan nan nan nan nan nan nan nan nan nan nan nan nan nan nan nan nan nan nan nan nan nan nan nan nan nan nan nan nan nan nan nan nan nan nan nan nan nan nan 2 2 2 1 0 0 0 0 0 0 0 0 0 1 1 1 2 2 2 2 2 1 1 1 1 1 1 2
nan 0 0 0 0 0 0 0 nan nan nan nan nan nan nan nan nan nan nan nan nan nan nan nan nan nan nan nan nan nan nan nan nan nan nan nan nan nan nan nan nan nan nan nan nan nan nan nan nan nan nan nan nan nan nan nan nan nan 0 2 2 1 0 nan nan nan nan nan 0 0 0 0 1 1 1 2 2 2 1 1 1 1 0 0 0 0
1 2 1 1 1 1 0 0 0 0 nan nan nan nan nan nan nan nan nan nan nan nan nan nan nan nan nan nan nan nan nan nan nan nan nan nan nan nan nan nan nan nan nan nan nan nan nan nan nan nan nan nan nan nan nan nan nan nan nan 1 1 1 nan nan nan nan nan nan nan nan nan 0 1 1 1 1 1 1 1 0 0 1 0 nan nan nan
nan nan nan nan nan nan nan nan 0 0 0 nan nan nan nan nan nan nan nan nan nan nan nan nan nan nan nan nan nan nan nan nan nan nan nan nan nan nan nan nan nan nan nan nan nan nan nan nan nan nan nan nan nan nan nan nan nan nan nan nan nan nan nan nan nan nan nan nan nan nan nan nan nan nan nan nan 0 0 0 nan nan 1 0 nan nan nan
nan nan nan nan nan nan nan nan nan nan nan nan nan nan nan nan nan nan nan nan nan nan nan nan nan nan nan nan nan nan nan nan nan nan nan nan nan nan nan nan nan nan nan nan nan nan nan nan nan nan nan nan nan nan nan nan nan nan nan nan nan nan nan nan nan nan nan nan nan nan nan nan nan nan nan nan nan nan nan nan nan nan 0 0 0 nan
nan nan nan nan nan nan nan nan nan nan nan nan nan nan nan nan nan nan nan nan nan nan nan nan nan nan nan nan nan nan nan nan nan nan nan nan nan nan nan nan nan nan nan nan nan nan nan nan nan nan nan nan nan nan nan nan nan nan nan nan nan nan nan nan nan nan nan nan nan nan nan nan nan nan nan nan nan nan nan nan nan nan nan 1 1 nan
nan nan nan nan nan nan nan nan nan nan nan nan nan nan nan nan nan nan nan nan nan nan nan nan nan nan nan nan nan nan nan nan nan nan nan nan nan nan nan nan nan nan nan nan nan nan nan nan nan nan nan nan nan nan nan nan nan nan nan nan nan nan nan nan nan nan nan nan nan nan nan nan nan nan nan nan nan nan nan nan nan nan 0 2 2 1
nan nan nan nan nan nan nan nan nan nan nan nan nan nan nan nan nan nan nan nan nan nan nan nan nan nan nan nan nan nan nan nan nan nan nan nan nan nan nan nan nan nan nan nan nan nan nan nan nan nan nan nan nan nan nan nan nan nan nan nan nan nan nan nan nan nan nan nan nan nan nan nan nan nan nan nan nan nan nan nan nan 0 1 3 3 5
nan nan nan nan nan nan nan nan nan nan nan nan nan nan nan nan nan nan nan nan nan nan nan nan nan nan nan nan nan nan nan nan nan nan nan nan nan nan nan nan nan nan nan nan nan nan nan nan nan nan nan nan nan nan nan nan nan nan nan nan nan nan nan nan nan nan nan nan nan nan nan nan nan nan nan nan nan nan nan nan nan 0 1 3 3 3
nan nan nan nan nan nan nan nan nan nan nan nan nan nan nan nan nan nan nan nan nan nan nan nan nan nan nan nan nan nan nan nan nan nan nan nan nan nan nan nan nan nan nan nan nan nan nan nan nan nan nan nan nan nan nan nan nan nan nan nan nan nan nan nan nan nan nan nan nan nan nan nan nan nan nan nan nan nan nan nan nan nan nan nan nan 0
nan nan nan nan nan nan nan nan nan nan nan nan nan nan nan nan nan nan nan nan nan nan nan nan nan nan nan nan nan nan nan nan nan nan nan nan nan nan nan nan nan nan nan nan nan nan nan nan nan nan nan nan nan nan nan nan nan nan nan nan nan nan nan nan nan nan nan nan nan nan nan nan nan nan nan nan nan nan nan nan nan nan nan nan nan nan
nan nan nan nan nan nan nan nan nan nan nan nan nan nan nan nan nan nan nan nan nan nan nan nan nan nan nan nan nan nan nan nan nan nan nan nan nan nan nan nan nan nan nan nan nan nan nan nan nan nan nan nan nan nan nan nan nan nan nan nan nan nan nan nan nan nan nan nan nan nan nan nan nan nan nan nan nan nan nan nan nan nan nan nan nan nan
nan nan nan nan nan nan nan nan nan nan nan nan nan nan nan nan nan nan nan nan nan nan nan nan nan nan nan nan nan nan nan nan nan nan nan nan nan nan nan nan nan nan nan nan nan nan nan nan nan nan nan nan nan nan nan nan nan nan nan nan nan nan nan nan nan nan nan nan nan nan nan nan nan nan nan nan nan nan nan nan nan nan nan nan nan nan
nan nan nan nan nan nan nan nan nan nan nan nan nan nan nan nan nan nan nan nan nan nan nan nan nan nan nan nan nan nan nan nan nan nan nan nan nan nan nan nan nan nan nan nan nan nan nan nan nan nan nan nan nan nan nan nan nan nan nan nan nan nan nan nan nan nan nan nan nan nan nan nan nan nan nan nan nan nan nan nan nan nan nan nan nan nan
nan nan nan nan nan nan nan nan nan nan nan nan nan nan nan nan nan nan nan nan nan nan nan nan nan nan nan nan nan nan nan nan nan nan nan nan nan nan nan nan nan nan nan nan nan nan nan nan nan nan nan nan nan nan nan nan nan nan nan nan nan nan nan nan nan nan nan nan nan nan nan nan nan nan nan nan nan nan nan nan nan nan nan nan nan nan
nan nan nan nan nan nan nan nan nan nan nan nan nan nan nan nan nan nan nan nan nan nan nan nan nan nan nan nan nan nan nan nan nan nan nan nan nan nan nan nan nan nan nan nan nan nan nan nan nan nan nan nan nan nan nan nan nan nan nan nan nan nan nan nan nan nan nan nan nan nan nan nan nan nan nan nan nan nan nan nan nan nan nan nan nan nan
nan nan nan nan nan nan nan nan nan nan nan nan nan nan nan nan nan nan nan nan nan nan nan nan nan nan nan nan nan nan nan nan nan nan nan nan nan nan nan nan nan nan nan nan nan nan nan nan nan nan nan nan nan nan nan nan nan nan nan nan nan nan nan nan nan nan nan nan nan nan nan nan nan nan nan nan nan nan nan nan nan nan nan nan nan nan
nan nan nan nan nan nan nan nan nan nan nan nan nan nan nan nan nan nan nan nan nan nan nan nan nan nan nan nan nan nan nan nan nan nan nan nan 0 0 nan nan nan nan nan nan nan nan nan nan nan nan nan nan nan nan nan nan nan nan nan nan nan nan nan nan nan nan nan nan nan nan nan nan nan nan nan nan nan nan nan nan nan nan nan nan nan nan
nan nan nan nan nan nan nan nan nan nan nan nan nan nan nan nan nan nan nan nan nan nan nan nan nan nan nan nan nan nan nan nan nan nan nan nan nan nan nan nan nan nan nan nan nan nan nan nan nan nan nan nan nan nan nan nan nan nan nan nan nan nan nan nan nan nan nan nan nan nan nan nan nan nan nan nan nan nan nan nan nan nan nan nan nan nan
nan nan nan nan nan nan nan nan nan nan nan nan nan nan nan nan nan nan nan nan nan nan nan nan nan nan nan nan nan nan nan nan nan nan nan nan nan nan nan nan nan nan nan nan nan nan nan nan nan nan nan nan nan nan nan nan nan nan nan nan nan nan nan nan nan nan nan nan nan nan nan nan nan nan nan nan nan nan nan nan nan nan nan nan nan nan
nan nan nan nan nan nan nan nan nan nan nan nan nan nan nan nan nan nan nan nan nan nan nan nan nan nan nan nan nan nan nan nan nan nan nan nan nan nan nan nan nan nan nan nan nan nan nan nan nan nan nan nan nan nan nan nan nan nan nan nan nan nan nan nan nan nan nan nan nan nan nan nan nan nan nan nan nan nan nan nan nan nan nan nan nan nan
nan nan nan nan nan nan nan nan nan nan nan nan nan nan nan nan nan nan nan nan nan nan nan nan nan nan nan nan nan nan nan nan nan nan nan nan nan nan nan nan nan nan nan nan nan nan nan nan nan nan nan nan nan nan nan nan nan nan nan nan nan nan nan nan nan nan nan nan nan nan nan nan nan nan nan nan nan nan nan nan nan nan nan nan nan nan
nan nan nan nan nan nan nan nan nan nan nan nan nan nan nan nan nan nan nan nan nan nan nan nan nan nan nan nan nan nan nan nan nan nan nan nan nan nan nan nan nan nan nan nan nan nan nan nan nan 0 nan nan nan nan nan nan nan nan nan nan nan nan nan nan nan nan nan nan nan nan nan nan nan nan nan nan nan nan nan nan nan nan nan nan nan nan
nan nan nan nan nan nan nan nan nan nan nan nan nan nan nan nan nan nan nan nan nan nan nan nan nan nan nan nan nan nan nan nan nan nan nan nan nan nan nan nan nan nan nan nan nan nan nan nan nan nan 0 1 nan nan nan nan nan nan nan nan nan nan nan nan nan nan nan nan nan nan nan nan nan nan nan 0 nan nan nan nan nan nan nan nan nan nan